Change the Weather History Date:

Thursday, April 18, 2013

  Actual Average Record
Temperature  
Mean Temperature 36 °F 40 °F  
Max Temperature 48 °F 51 °F 68 °F (1973)
Min Temperature 23 °F 30 °F 6 °F (2003)
Degree Days  
Heating Degree Days 29 25  
Month to date heating degree days 559 517  
Since 1 July heating degree days 7739 8313  
Cooling Degree Days 0 0  
Month to date cooling degree days 0 0  
Year to date cooling degree days 0 0  
Moisture  
Dew Point 19 °F    
Average Humidity 50    
Maximum Humidity 75    
Minimum Humidity 25    
Precipitation  
Precipitation T in 0.13 in 0.67 in (1954)
Month to date precipitation 0.92 2.30  
Year to date precipitation 5.09 9.75  
Sea Level Pressure  
Sea Level Pressure 30.33 in    
Wind  
Wind Speed 6 mph (South)    
Max Wind Speed 22 mph    
Max Gust Speed 32 mph    
Visibility 10 miles    
Events Rain    
T = Trace of Precipitation, MM = Missing Value Source: NWS Daily Summary

Daily Weather History Graph

Daily Weather History Graph

Search for Another Location

Airport or City:

Trip Planner

Search our weather history database for the weather conditions in past years. The results will help you decide how hot, cold, wet, or windy it might be!

Date:

Astronomy

Apr. 18, 2013 Rise Set
Actual Time 5:39 AM EDT 7:22 PM EDT
Civil Twilight 5:07 AM EDT 7:54 PM EDT
Nautical Twilight 4:28 AM EDT 8:33 PM EDT
Astronomical Twilight 3:46 AM EDT 9:15 PM EDT
Moon 11:43 AM EDT (4/18) 1:39 AM EDT (4/18)
Length of Visible Light 14h 47m
Length of Day
13h 43m
First Quarter, 51% of the Moon is Illuminated
Apr 18
First Quarter
Apr 25
Full
May 2
Last Quarter
May 9
New
May 18
First Quarter

Hourly Weather History & Observations

Time (EDT) Temp. Windchill Dew Point Humidity Pressure Visibility Wind Dir Wind Speed Gust Speed Precip Events Conditions
12:53 AM 27.0 °F - 17.1 °F 66% 30.38 in 10.0 mi Calm Calm - N/A   Clear
1:53 AM 25.0 °F - 17.1 °F 72% 30.35 in 10.0 mi Calm Calm - N/A   Clear
2:53 AM 28.9 °F 25.2 °F 17.1 °F 61% 30.38 in 10.0 mi NNW 3.5 mph - N/A   Clear
3:53 AM 28.0 °F 21.7 °F 16.0 °F 61% 30.39 in 10.0 mi North 5.8 mph - N/A   Clear
4:53 AM 28.0 °F - 18.0 °F 66% 30.40 in 10.0 mi Calm Calm - N/A   Clear
5:53 AM 26.1 °F 21.9 °F 19.0 °F 75% 30.45 in 10.0 mi South 3.5 mph - N/A   Clear
6:53 AM 28.9 °F - 21.9 °F 75% 30.48 in 10.0 mi Calm Calm - N/A   Clear
7:53 AM 34.0 °F - 19.0 °F 54% 30.48 in 10.0 mi Calm Calm - N/A   Clear
8:53 AM 37.9 °F - 18.0 °F 45% 30.45 in 10.0 mi Calm Calm - N/A   Clear
9:53 AM 41.0 °F 36.4 °F 16.0 °F 36% 30.43 in 10.0 mi ESE 6.9 mph - N/A   Clear
10:53 AM 42.1 °F 37.1 °F 16.0 °F 35% 30.44 in 10.0 mi SW 8.1 mph - N/A   Scattered Clouds
11:53 AM 45.0 °F 41.2 °F 12.9 °F 27% 30.43 in 10.0 mi South 6.9 mph 16.1 mph N/A   Scattered Clouds
12:53 PM 46.9 °F - 12.9 °F 25% 30.38 in 10.0 mi SSW 8.1 mph 16.1 mph N/A   Overcast
1:53 PM 46.9 °F - 15.1 °F 28% 30.38 in 10.0 mi South 8.1 mph - N/A   Overcast
2:53 PM 46.0 °F 41.0 °F 16.0 °F 30% 30.34 in 10.0 mi South 10.4 mph 16.1 mph N/A   Overcast
3:53 PM 46.0 °F 42.5 °F 16.0 °F 30% 30.31 in 10.0 mi Variable 6.9 mph - N/A   Overcast
4:53 PM 44.1 °F 38.6 °F 21.9 °F 42% 30.28 in 7.0 mi South 10.4 mph 19.6 mph 0.00 in Rain Light Rain
5:53 PM 43.0 °F 40.3 °F 25.0 °F 49% 30.25 in 10.0 mi SSE 4.6 mph - 0.00 in   Overcast
6:53 PM 42.1 °F 37.7 °F 24.1 °F 49% 30.22 in 10.0 mi South 6.9 mph - 0.00 in   Overcast
7:53 PM 42.1 °F 36.6 °F 24.1 °F 49% 30.19 in 10.0 mi South 9.2 mph 18.4 mph N/A   Overcast
8:53 PM 42.1 °F 37.7 °F 21.0 °F 43% 30.15 in 10.0 mi SSE 6.9 mph 17.3 mph N/A   Overcast
9:53 PM 41.0 °F 34.7 °F 21.9 °F 47% 30.14 in 10.0 mi South 10.4 mph 21.9 mph N/A   Partly Cloudy
10:53 PM 41.0 °F 34.3 °F 24.1 °F 51% 30.11 in 10.0 mi South 11.5 mph 18.4 mph N/A   Overcast
11:53 PM 41.0 °F 35.2 °F 25.0 °F 53% 30.07 in 10.0 mi South 9.2 mph 21.9 mph N/A   Overcast